[[{"header":{"parameterUnit":"m.s-1","parameterCategory":1,"la1":30.2991,"la2":30.254,"lo1":-89.0895,"lo2":-89.0444,"dy":0.0017,"dx":0.0017,"nx":28,"ny":28,"refTime":"2023-11-08T09:00:00:Z","depth":0,"parameterNumber":2,"parameterNumberName":"U-component_of_WINDS"},"data":[0,0,0,0,0,0,0,0,0,0,0,0,0,0,0,0,0,0,0,0,0,0,0,0,0,0,0,0,0,0,0,0,0,0,0,0,0,0,0,0,0,0,0,0,0,0,0,0,0,0,0,0,0,0,0,0,0,0,-1.9958,-1.9959,0,-2.0043,-2.0044,-2.0045,-2.0058,-2.0057,-2.0057,-2.0056,-2.0143,-2.0146,-2.0149,0,0,0,0,0,0,0,0,0,0,0,0,0,-1.9808,-1.9811,-1.9958,-1.9959,-1.996,-2.0043,-2.0044,-2.0045,-2.0058,-2.0057,-2.0056,-2.0056,-2.0142,-2.0146,-2.015,0,0,0,0,0,0,0,0,0,0,0,0,0,-1.9881,-1.9812,-1.9958,-1.9976,-1.9979,-2.0043,-2.0044,-2.0046,-2.0059,-2.0057,-2.0056,-2.0055,-2.0141,-2.0146,-2.015,-2.0201,0,0,-2.0164,-2.0166,0,0,0,0,0,0,0,0,-1.9877,-1.9887,-1.9973,-1.9975,-1.9978,-2.0039,-2.0023,-2.0098,-2.0059,-2.0028,-2.0056,-2.0055,-2.011,-2.0117,-2.0135,-2.0205,-2.0209,-2.0165,-2.0167,-2.0169,-2.0171,0,0,0,0,0,0,0,-1.9872,-1.9883,-1.9992,-1.9974,-1.9977,-1.9981,-1.999,-2.0038,-2.0074,-2.0031,-2.0032,-2.0042,-2.0111,-2.0131,-2.0137,-2.021,-2.0164,-2.0168,-2.0171,-2.0173,-2.0328,-2.0329,0,0,0,0,0,0,-1.9863,-1.9879,-1.9989,-1.9994,-1.9924,-1.9985,-1.9995,-2.0021,-2.0074,-2.0081,-2.0043,-2.0042,-2.0124,-2.0132,-2.014,-2.0204,-2.0169,-2.0174,-2.0176,-2.0327,-2.0328,-2.033,0,0,0,0,0,0,-1.986,-1.9873,-1.9985,-1.9937,-1.9951,-1.9989,-2.0017,-2.0023,-2.0043,-2.0083,-2.009,-2.0056,-2.0123,-2.0134,-2.0186,-2.0207,-2.0176,-2.018,-2.0325,-2.0327,-2.0329,-2.0332,0,0,0,0,0,0,-1.9856,-1.9872,-1.9891,-1.9937,-1.9954,-2.0029,-2.0018,-2.0025,-2.005,-2.005,-2.0097,-2.0104,-2.0123,-2.0179,-2.0191,-2.0213,-2.0183,-2.0323,-2.0326,-2.0329,-2.033,-2.0334,-2.0337,0,0,0,0,0,-1.985,-1.9888,-1.9892,-1.9905,-1.9979,-2.003,-2.004,-2.0061,-2.0052,-2.0072,-2.0098,-2.0102,-2.0204,-2.0185,-2.0198,-2.0222,-2.0322,-2.0325,-2.0328,-2.0328,-2.0333,-2.0337,0,0,0,0,0,0,-1.9843,-1.9894,-1.9899,-1.9953,-1.9987,-2.0033,-2.0058,-2.0065,-2.0103,-2.0101,-2.0126,-2.0137,-2.0188,-2.021,-2.0188,-2.0275,-2.0262,-2.0268,-2.0258,-2.0263,-2.0266,-2.0259,-2.0187,0,0,0,0,0,-1.9848,-1.9885,-1.9928,-1.9972,-1.9989,-2.0021,-2.0044,-2.0057,-2.0094,-2.0108,-2.0138,-2.0174,-2.0214,-2.024,-2.0279,-2.0334,-2.0345,-2.0357,-2.036,-2.0363,-2.0368,-2.0399,-2.0406,-2.034,-2.034,-2.034,0,0,-1.9858,-1.9891,-1.9913,-1.9971,-1.9999,-2.0038,-2.0033,-2.0073,-2.0103,-2.0115,-2.0166,-2.0189,-2.0231,-2.0285,-2.031,-2.0305,-2.0388,-2.0367,-2.0369,-2.0372,-2.0403,-2.0409,-2.0415,-2.0342,-2.0342,-2.0342,0,0,-1.9896,-1.9924,-1.9964,-1.9993,-2.0035,-2.0057,-2.0066,-2.0111,-2.0127,-2.0179,-2.0189,-2.0225,-2.0293,-2.0322,-2.0346,-2.0397,-2.0403,-2.0409,-2.0427,-2.0458,-2.0463,-2.0468,-2.0486,-2.0493,-2.0414,-2.0414,-2.0414,0,-1.9903,-1.9961,-1.9984,-2.0024,-2.005,-2.0063,-2.0104,-2.0131,-2.0184,-2.0202,-2.0196,-2.0283,-2.0311,-2.0373,-2.0386,-2.0405,-2.0417,-2.0404,-2.0461,-2.0465,-2.047,-2.0488,-2.0495,-2.0414,-2.0414,-2.0414,-2.0414,0,-1.9968,-2.0009,-2.0036,-2.0087,-2.0116,-2.0156,-2.0186,-2.0212,-2.0224,-2.0246,-2.03,-2.0335,-2.0382,-2.0398,-2.0409,-2.0462,-2.0457,-2.0455,-2.0443,-2.0477,-2.0494,-2.0501,-2.0415,-2.0415,-2.0415,-2.0415,0,0,-2.0003,-2.0067,-2.0077,-2.01,-2.0149,-2.0181,-2.0223,-2.0269,-2.0292,-2.0329,-2.0365,-2.0423,-2.0423,-2.045,-2.0465,-2.0492,-2.0531,-2.0487,-2.0489,-2.0494,-2.0592,-2.0592,-2.06,-2.0535,-2.0537,-2.0538,-2.0588,0,-2.0047,-2.0121,-2.0143,-2.0205,-2.0243,-2.0258,-2.0294,-2.0329,-2.0351,-2.0387,-2.0412,-2.0453,-2.0449,-2.0465,-2.0493,-2.052,-2.0551,-2.0517,-2.0569,-2.0571,-2.0558,-2.0609,-2.0609,-2.0655,-2.0595,-2.0596,-2.0597,0,-2.0107,-2.0145,-2.0212,-2.0257,-2.0274,-2.0306,-2.035,-2.0385,-2.0425,-2.0439,-2.047,-2.0484,-2.0529,-2.0515,-2.0578,-2.0555,-2.0578,-2.0595,-2.0597,-2.0602,-2.0586,-2.0615,-2.067,-2.0677,-2.0608,-2.0607,-2.0607,0,-2.0126,-2.0194,-2.0243,-2.0263,-2.0317,-2.0339,-2.0363,-2.0402,-2.0428,-2.0468,-2.0485,-2.0529,-2.0554,-2.0588,-2.0613,-2.0601,-2.0674,-2.0662,-2.0688,-2.0687,-2.0702,-2.07,-2.0761,-2.0717,-2.0717,-2.0717,-2.0717,0,-2.0172,-2.0212,-2.0252,-2.0282,-2.0328,-2.0353,-2.0398,-2.0422,-2.0457,-2.0493,-2.0508,-2.0541,-2.0573,-2.0611,-2.0631,-2.068,-2.0691,-2.0705,-2.0709,-2.0703,-2.0701,-2.0718,-2.0715,-2.0719,-2.0719,-2.0718,-2.0718,0,-2.02,-2.0228,-2.0282,-2.0329,-2.0342,-2.0374,-2.0414,-2.0445,-2.0468,-2.0513,-2.0525,-2.0562,-2.0608,-2.0637,-2.0694,-2.0708,-2.0762,-2.0766,-2.0748,-2.0751,-2.0775,-2.0772,-2.0847,-2.0859,-2.0808,-2.0808,-2.0809,0,-2.0228,-2.0259,-2.0309,-2.0334,-2.0358,-2.0397,-2.0425,-2.0452,-2.048,-2.0529,-2.0553,-2.06,-2.0638,-2.071,-2.0743,-2.0787,-2.0792,-2.0816,-2.0799,-2.0792,-2.0793,-2.079,-2.0794,-2.0818,-2.0819,-2.0819,-2.0819,0,-2.0273,-2.0286,-2.0324,-2.0368,-2.04,-2.0436,-2.0472,-2.0492,-2.0525,-2.0556,-2.0603,-2.0633,-2.0692,-2.0739,-2.0786,-2.0812,-2.0821,-2.0825,-2.0833,-2.0826,-2.0815,-2.0821,-2.0756,-2.0822,-2.0822,-2.0822,-2.0822,-2.0822,-2.0302,-2.033,-2.037,-2.0413,-2.0443,-2.0477,-2.0508,-2.0535,-2.0574,-2.0625,-2.0639,-2.0688,-2.0728,-2.0794,-2.082,-2.0859,-2.0856,-2.0868,-2.0871,-2.0874,-2.0874,-2.0809,-2.0868,-2.0868,-2.0868,-2.0868,-2.0868,0,-2.0348,-2.0375,-2.0414,-2.0464,-2.0498,-2.0504,-2.0545,-2.0573,-2.0616,-2.0653,-2.0691,-2.0745,-2.079,-2.0827,-2.0874,-2.0898,-2.0904,-2.091,-2.0908,-2.0914,-2.0874,-2.0862,-2.0904,-2.0904,-2.0904,-2.0904,-2.0904,-2.0904,-2.0376,-2.0425,-2.0443,-2.0507,-2.0534,-2.0582,-2.0604,-2.0636,-2.0666,-2.0725,-2.0763,-2.0787,-2.0824,-2.0874,-2.0917,-2.0926,-2.0943,-2.0948,-2.0958,-2.092,-2.0916,-2.0912,-2.0901,-2.0951,-2.0951,-2.0995,-2.0995,-2.0995]},{"header":{"parameterUnit":"m.s-1","parameterCategory":1,"la1":30.2991,"la2":30.254,"lo1":-89.0895,"lo2":-89.0444,"dy":0.0017,"dx":0.0017,"nx":28,"ny":28,"refTime":"2023-11-08T09:00:00:Z","depth":0,"parameterNumber":3,"parameterNumberName":"V-component_of_WINDS"},"data":[0,0,0,0,0,0,0,0,0,0,0,0,0,0,0,0,0,0,0,0,0,0,0,0,0,0,0,0,0,0,0,0,0,0,0,0,0,0,0,0,0,0,0,0,0,0,0,0,0,0,0,0,0,0,0,0,0,0,0.6312,0.631,0,0.6156,0.6155,0.6153,0.609,0.609,0.609,0.6091,0.593,0.5925,0.5921,0,0,0,0,0,0,0,0,0,0,0,0,0,0.6554,0.655,0.6312,0.631,0.6308,0.6157,0.6155,0.6152,0.609,0.609,0.609,0.6091,0.5931,0.5926,0.592,0,0,0,0,0,0,0,0,0,0,0,0,0,0.6429,0.6549,0.6312,0.6259,0.6252,0.6157,0.6155,0.6152,0.6089,0.609,0.609,0.6091,0.5933,0.5927,0.592,0.5866,0,0,0.5899,0.5896,0,0,0,0,0,0,0,0,0.6436,0.642,0.6268,0.6262,0.6255,0.6143,0.6181,0.6056,0.6089,0.6151,0.6091,0.6091,0.6,0.5988,0.5957,0.5859,0.5852,0.5898,0.5894,0.5891,0.5889,0,0,0,0,0,0,0,0.6445,0.6427,0.625,0.6266,0.6258,0.6242,0.6225,0.6157,0.6075,0.6146,0.6141,0.6123,0.5997,0.5964,0.5953,0.5849,0.5898,0.5892,0.5888,0.5885,0.57,0.5699,0,0,0,0,0,0,0.6463,0.6434,0.6255,0.6246,0.6349,0.6237,0.6218,0.6178,0.6075,0.606,0.6123,0.6121,0.5976,0.5961,0.5947,0.5878,0.5891,0.5884,0.588,0.5701,0.57,0.5699,0,0,0,0,0,0,0.6468,0.6447,0.6262,0.6339,0.6314,0.6233,0.6188,0.6175,0.6142,0.6058,0.6043,0.6105,0.5976,0.5957,0.5887,0.5871,0.5881,0.5875,0.5702,0.57,0.5699,0.5739,0,0,0,0,0,0,0.6475,0.645,0.6428,0.6339,0.631,0.6204,0.6188,0.6172,0.6131,0.6127,0.6037,0.6023,0.5975,0.5898,0.588,0.5862,0.587,0.5703,0.5701,0.57,0.5739,0.5739,0.574,0,0,0,0,0,0.6484,0.6445,0.6428,0.6406,0.6282,0.6203,0.6187,0.6133,0.613,0.6108,0.6054,0.6026,0.5877,0.5891,0.5871,0.585,0.5703,0.5702,0.57,0.5738,0.5739,0.574,0,0,0,0,0,0,0.6534,0.6432,0.6412,0.6343,0.6282,0.6193,0.6163,0.6135,0.6074,0.6072,0.6008,0.5988,0.5923,0.588,0.5898,0.5794,0.5788,0.5782,0.5824,0.5824,0.5825,0.5836,0.5864,0,0,0,0,0,0.6537,0.6483,0.6397,0.6344,0.6315,0.6245,0.6208,0.6172,0.6107,0.6081,0.6021,0.5959,0.5898,0.5859,0.5798,0.5733,0.5712,0.5709,0.571,0.5711,0.5706,0.5668,0.5666,0.5693,0.5693,0.5693,0,0,0.6543,0.6481,0.645,0.6352,0.6301,0.6246,0.6223,0.6165,0.6123,0.6071,0.6002,0.5957,0.5883,0.5815,0.5782,0.5777,0.5694,0.5708,0.571,0.5704,0.5666,0.5664,0.5662,0.5692,0.5692,0.5693,0,0,0.6524,0.6472,0.6422,0.6372,0.6295,0.6249,0.6238,0.6153,0.6121,0.6051,0.6011,0.5961,0.5857,0.5806,0.5766,0.5731,0.5703,0.5714,0.5716,0.568,0.5678,0.5676,0.5663,0.5659,0.5709,0.5709,0.5709,0,0.654,0.6455,0.64,0.6344,0.6303,0.6255,0.6204,0.6158,0.6066,0.6038,0.6034,0.5904,0.5851,0.5771,0.5763,0.5732,0.5717,0.5722,0.5683,0.568,0.5677,0.5664,0.5659,0.5711,0.5711,0.5711,0.5711,0,0.6478,0.642,0.6389,0.6302,0.6258,0.6205,0.6142,0.6103,0.6072,0.6027,0.5956,0.5891,0.5817,0.5795,0.5764,0.5711,0.571,0.5696,0.5688,0.5677,0.5664,0.5658,0.5714,0.5713,0.5712,0.5712,0,0,0.6484,0.6369,0.6358,0.6318,0.6232,0.6185,0.6132,0.6059,0.6028,0.5966,0.5919,0.5834,0.582,0.5775,0.5738,0.5707,0.5683,0.5696,0.5693,0.5695,0.5621,0.5632,0.5627,0.5665,0.5664,0.5663,0.5627,0,0.6452,0.6353,0.6303,0.6225,0.6171,0.6126,0.6079,0.6021,0.5978,0.5926,0.5878,0.5818,0.5805,0.5778,0.5746,0.5693,0.5667,0.5695,0.562,0.5618,0.5638,0.562,0.563,0.56,0.5622,0.5621,0.562,0,0.6401,0.6341,0.6259,0.6179,0.6155,0.6113,0.6044,0.5995,0.5929,0.5899,0.5851,0.5815,0.5757,0.5756,0.5674,0.5694,0.5661,0.5631,0.5628,0.5618,0.5617,0.5608,0.5588,0.5584,0.5612,0.5612,0.5613,0,0.6413,0.6311,0.6249,0.6216,0.6123,0.6094,0.6054,0.5989,0.5949,0.5889,0.5863,0.5797,0.576,0.571,0.5657,0.5661,0.5581,0.5575,0.5554,0.5556,0.5537,0.5539,0.5511,0.5519,0.5519,0.5519,0.5519,0,0.6381,0.6332,0.6252,0.6214,0.6158,0.6102,0.6048,0.6004,0.5947,0.5899,0.5857,0.5813,0.5746,0.5694,0.5653,0.5592,0.5576,0.5551,0.554,0.5553,0.5556,0.5529,0.5529,0.5518,0.5518,0.5519,0.5519,0,0.6383,0.6328,0.6256,0.6175,0.6153,0.6115,0.6045,0.6006,0.5962,0.5902,0.5885,0.5816,0.5753,0.5696,0.5612,0.5584,0.5522,0.5509,0.5544,0.5538,0.552,0.5522,0.5472,0.5463,0.5479,0.5479,0.5479,0,0.6366,0.6327,0.6242,0.6207,0.6168,0.6112,0.6072,0.6017,0.5977,0.59,0.587,0.5804,0.5748,0.5649,0.5591,0.5527,0.5512,0.5499,0.5502,0.5517,0.551,0.5513,0.5508,0.5499,0.5499,0.5499,0.5499,0,0.6341,0.6316,0.626,0.6195,0.6149,0.6094,0.6039,0.6013,0.5947,0.5904,0.584,0.5797,0.5712,0.5647,0.5577,0.5535,0.5506,0.5499,0.5491,0.5503,0.5525,0.5512,0.5544,0.55,0.55,0.55,0.55,0.55,0.6331,0.6295,0.623,0.6169,0.6122,0.6072,0.6031,0.5983,0.5929,0.5855,0.5826,0.5761,0.5697,0.56,0.5559,0.5507,0.5501,0.549,0.5486,0.5484,0.5486,0.5535,0.5494,0.5494,0.5494,0.5494,0.5494,0,0.6303,0.626,0.6205,0.6129,0.6082,0.6061,0.5999,0.596,0.5903,0.5847,0.5793,0.572,0.5657,0.5596,0.553,0.55,0.5485,0.5484,0.5485,0.5476,0.5495,0.5508,0.5498,0.5498,0.5498,0.5498,0.5498,0.5498,0.6283,0.622,0.6188,0.6103,0.6059,0.5995,0.5962,0.5915,0.587,0.579,0.5738,0.5699,0.564,0.5571,0.5513,0.5496,0.5473,0.5476,0.5456,0.5474,0.5475,0.5475,0.5487,0.5472,0.5472,0.5441,0.5441,0.5441]}]]